Location: Melbourne
(37.8120°S, 144.9677°E)
Time: 05:09:44
(UTC+11:00)

Daily predictions for brighter satellites

Satellite Brightness Start Highest point End
(mag) Time Altitude Azimuth Time Altitude Azimuth Time Altitude Azimuth
H-2A R/B 3.2 00:01:20 10° S 00:04:32 42° SW 00:04:32 42° SW
Terra 2.6 00:06:23 10° SSE 00:09:50 47° SSE 00:09:50 47° SSE
Cosmos 2056 Rocket 4.5 00:10:53 40° W 00:11:51 44° WSW 00:17:05 10° S
Cosmos 2074 Rocket 4.0 00:09:34 10° SSW 00:15:52 70° W 00:16:04 70° WNW
Meteor 1-5 Rocket 4.4 00:16:01 10° S 00:20:29 61° S 00:20:29 61° S
MOS 1-B Rocket 4.0 00:21:56 10° SSE 00:27:02 71° SE 00:27:02 71° SE
Cosmos 1818 4.5 00:24:03 10° SSW 00:28:45 41° SE 00:28:45 41° SE
Lacrosse 4 Rocket 4.0 00:28:26 14° W 00:30:10 17° SW 00:33:04 10° S
Cosmos 407 Rocket 4.4 00:27:37 10° SSW 00:31:32 44° WSW 00:31:32 44° WSW
Meteor 2-13 Rocket 4.5 00:29:08 10° S 00:34:57 77° SW 00:34:57 77° SW
Cosmos 1140 Rocket 4.2 00:39:23 10° SSW 00:43:21 50° S 00:43:21 50° S
ATLAS 5 CENTAUR R/B 4.1 00:48:20 22° ESE 00:48:20 22° ESE 00:51:02 10° SE
Cosmos 2341 Rocket 4.1 00:43:39 10° S 00:49:21 72° SSE 00:49:21 72° SSE
CZ-4C R/B 4.4 00:54:17 22° E 00:54:17 22° E 00:58:00 10° ESE
H-2A R/B 4.3 01:01:31 32° SSW 01:01:31 32° SSW 01:04:05 10° SSW
Cosmos 1943 Rocket 3.0 01:01:09 44° WSW 01:01:09 44° WSW 01:06:31 10° S
CZ-2C R/B 4.1 01:06:16 28° WSW 01:06:16 28° WSW 01:09:43 10° SW
USA 215 3.5 01:07:41 10° SE 01:14:13 66° SW 01:15:20 57° W
Lacrosse 5 rocket 4.2 01:18:46 13° WSW 01:21:11 18° SSW 01:24:26 10° SSE
Cosmos 2227 Rocket 4.0 01:19:35 10° S 01:23:58 22° SE 01:25:01 21° ESE
Cosmos 2366 rocket 4.3 01:18:54 10° S 01:24:41 64° SE 01:24:41 64° SE
Cosmos 2181 Rocket 4.4 01:26:30 54° WSW 01:26:30 54° WSW 01:32:18 10° S
Cosmos 1656 Rocket 4.5 01:33:50 45° SSW 01:33:50 45° SSW 01:38:11 10° SSE
Terra 4.5 01:47:13 10° SW 01:48:15 11° WSW 01:48:43 10° WSW
ALOS 2 4.4 02:01:58 10° S 02:04:23 30° SSW 02:04:23 30° SSW
Cosmos 2278 4.3 02:10:14 51° SE 02:10:14 51° SE 02:14:42 10° SSE
NPP 4.2 02:17:17 57° S 02:17:17 57° S 02:21:35 10° SSW
ATLAS 3B R/B 3.0 02:22:08 51° E 02:22:08 51° E 02:27:55 10° SE
Cosmos 1980 Rocket 3.9 02:27:22 22° E 02:27:22 22° E 02:31:19 10° SE
CZ-4B R/B 4.2 02:24:12 10° S 02:25:25 20° S 02:25:25 20° S
ATLAS 5 CENTAUR R/B 3.0 02:29:52 49° WSW 02:30:12 49° SW 02:36:11 10° SSE
Cosmos 1697 Rocket 3.4 02:38:20 45° E 02:38:20 45° E 02:43:03 10° SE
CZ-4C R/B 2.9 02:39:28 63° W 02:40:27 69° SW 02:47:34 10° SSE
Cosmos 2058 Rocket 4.4 02:44:40 10° S 02:47:29 37° SSW 02:47:29 37° SSW
CZ-2C R/B 4.2 02:45:10 10° S 02:48:28 31° SW 02:48:28 31° SW
Cosmos 1932 4.3 02:49:59 87° ESE 02:49:59 87° ESE 02:56:13 10° SSE
CZ-2D R/B 2.4 02:50:50 63° ESE 02:50:53 63° ESE 02:56:20 10° S
Cosmos 2239 Rocket 4.4 02:45:12 10° S 02:51:23 77° WSW 02:51:23 77° WSW
Cosmos 2297 Rocket 2.3 02:49:13 10° SSW 02:54:19 72° SSW 02:54:19 72° SSW
Cosmos 2322 Rocket 4.5 02:55:33 12° ENE 02:56:59 13° E 02:59:30 10° ESE
COSMOS 2455 3.5 02:58:13 44° ENE 02:58:17 44° ENE 03:03:58 10° SE
ADEOS 3.8 03:01:54 63° SW 03:01:54 63° SW 03:06:24 10° SSW
Cosmos 1602 Rocket 4.3 03:07:58 51° SSE 03:07:58 51° SSE 03:11:23 10° S
Cosmos 1656 3.8 03:07:21 66° SW 03:07:21 66° SW 03:12:31 10° SSE
Resurs 1-4 Rocket 2.1 03:07:27 80° S 03:07:27 80° S 03:12:33 10° SSW
Cosmos 2227 Rocket 3.0 03:02:49 10° SSW 03:06:48 40° WSW 03:06:48 40° WSW
Cosmos 1727 Rocket 4.0 03:15:05 65° NNE 03:16:02 78° E 03:22:22 10° S
Atlas Centaur 2 4.0 03:20:14 15° ENE 03:20:14 15° ENE 03:21:26 10° ENE
Lacrosse 5 2.4 03:18:09 49° ENE 03:18:09 49° ENE 03:22:35 10° SE
Cosmos 1934 Rocket 4.0 03:13:17 10° SSW 03:19:20 60° W 03:19:20 60° W
Cosmos 1992 Rocket 4.0 03:21:58 72° SW 03:21:58 72° SW 03:27:05 10° SSE
Okean O Rocket 3.7 03:24:55 15° ENE 03:27:29 24° ESE 03:31:03 10° SSE
IRS-1D 4.0 03:28:45 46° WSW 03:28:45 46° WSW 03:32:50 10° SSW
Cosmos 1825 Rocket 4.4 03:27:48 43° E 03:27:58 43° E 03:32:14 10° SSE
Cosmos 1626 Rocket 4.3 03:29:13 45° SW 03:29:13 45° SW 03:32:45 10° S
OAO 3 Rocket 4.2 03:32:59 34° ENE 03:32:59 34° ENE 03:35:45 10° E
ARIANE 5 R/B 3.1 03:32:17 42° WSW 03:32:17 42° WSW 03:36:10 10° SSW
ADEOS Rocket 3.2 03:31:05 37° NNE 03:33:56 78° ESE 03:40:07 10° S
Cosmos 1953 Rocket 4.4 03:39:39 39° ENE 03:40:13 41° E 03:44:22 10° SSE
ERS-2 4.5 03:38:36 15° ENE 03:40:37 22° ESE 03:43:36 10° SSE
Cosmos 1605 Rocket 4.1 03:37:26 10° SSW 03:43:44 56° W 03:44:38 52° WNW
Cosmos 968 Rocket 4.0 03:38:38 10° S 03:43:48 57° ESE 03:46:41 25° NE
Cosmos 405 4.0 03:40:32 10° S 03:43:25 47° SE 03:43:25 47° SE
Cosmos 1953 4.1 03:42:50 10° SSE 03:46:27 29° ESE 03:48:18 20° ENE
Cosmos 1812 Rocket 4.1 03:43:29 10° SSW 03:47:01 48° SW 03:47:01 48° SW
ADEOS II 3.9 03:43:23 10° NE 03:47:55 30° ESE 03:52:30 10° S
SL-16 R/B 2.9 03:56:52 32° NNE 03:59:04 47° ENE 04:04:32 10° SE
Cosmos 1766 3.5 03:58:10 10° SSW 04:01:37 58° SW 04:01:37 58° SW
Cosmos 1441 Rocket 4.2 04:05:37 36° SW 04:05:37 36° SW 04:08:51 10° S
Cosmos 1842 3.2 04:05:30 71° WSW 04:05:30 71° WSW 04:09:29 10° S
USA 238 DEB 4.2 04:07:07 33° WNW 04:10:06 51° SW 04:17:04 10° SSE
USA 238 4.2 04:07:13 33° WNW 04:10:11 51° SW 04:17:10 10° SSE
Cosmos 2360 Rocket 4.2 04:06:16 10° NNE 04:10:30 22° E 04:14:44 10° SE
Cosmos 1980 Rocket 2.7 04:09:09 39° WNW 04:10:37 48° WSW 04:16:11 10° S
IRS-1C Rocket 4.2 04:07:23 22° NNE 04:10:55 76° ESE 04:16:16 10° S
Cosmos 2098 Rocket 3.8 04:04:40 10° S 04:11:20 71° W 04:13:23 40° NNW
ATLAS 3B R/B 3.8 04:09:23 21° W 04:12:25 30° SW 04:18:17 10° SSE
MOS 1 Rocket 4.2 04:09:23 11° NNE 04:14:32 60° ESE 04:19:56 10° S
IRAS Rocket 4.2 04:13:24 41° NNW 04:15:10 60° WNW 04:20:40 10° SSW
SeaSat 1 2.5 04:14:49 45° NNW 04:15:59 57° WNW 04:20:54 10° SSW
Hubble Space Telescope 2.9 04:18:47 15° NE 04:18:47 15° NE 04:19:55 10° NE
COBE Rocket 3.7 04:15:31 35° N 04:17:30 87° WNW 04:22:22 10° SSW
GEOS 3 Rocket 3.8 04:12:17 10° SE 04:17:32 67° ENE 04:19:34 37° NNW
CZ-4B R/B 3.3 04:14:24 15° NNE 04:19:03 80° ESE 04:24:48 10° S
Cosmos 1697 Rocket 4.1 04:20:04 21° W 04:21:50 24° WSW 04:26:21 10° S
Cosmos 1437 Rocket 3.0 04:18:44 10° SSW 04:22:51 55° W 04:23:12 53° WNW
USA 161 4.1 04:21:34 10° SE 04:23:33 17° E 04:25:04 12° NE
Cosmos 1758 3.2 04:20:10 10° S 04:24:18 86° W 04:25:41 41° N
SL-08 R/B 3.4 04:22:57 10° S 04:27:36 59° WSW 04:29:04 40° NW
Cosmos 2227 4.1 04:22:05 10° SSW 04:27:46 66° WNW 04:32:16 16° N
Cosmos 2100 Rocket 4.1 04:23:29 10° SSW 04:29:45 57° W 04:33:08 27° NNW
PSLV R/B 3.9 04:27:32 13° NNE 04:31:11 65° ESE 04:35:25 10° S
CZ-2D R/B 4.0 04:32:10 15° W 04:32:10 15° W 04:34:28 10° SW
Cosmos 1777 Rocket 4.0 04:26:47 10° SSW 04:32:09 83° ESE 04:37:26 10° NNE
Cosmos 1346 4.3 04:34:36 29° SW 04:34:36 29° SW 04:36:44 10° S
Cosmos 1544 3.1 04:30:52 10° SSW 04:34:37 62° W 04:35:26 47° NNW
NOSS 3-2 (A) 4.1 04:30:50 28° NW 04:35:30 72° SW 04:43:05 10° SSE
PSLV R/B 4.1 04:36:20 42° NW 04:36:52 45° W 04:40:41 10° SSW
SL-24 R/B - RUBIN 2 3.9 04:33:35 10° SSW 04:38:23 86° ESE 04:43:49 10° NNE
Cosmos 1805 3.5 04:34:45 10° SSW 04:38:37 48° W 04:39:25 41° NW
NOSS 3-3 (A) 4.3 04:32:49 10° SSW 04:39:26 70° SE 04:45:34 10° NE
NOSS 3-3 (C) 4.3 04:32:56 10° SSW 04:39:33 69° SE 04:45:41 10° NE
Cosmos 2322 Rocket 2.2 04:37:23 30° NNW 04:40:15 74° WSW 04:45:58 10° SSE
NOSS 3-2 (C) 4.0 04:36:54 26° NW 04:41:59 80° WSW 04:49:37 10° SSE
COSMOS 2455 4.0 04:41:22 20° W 04:44:20 29° SW 04:49:34 10° S
Cosmos 1570 Rocket 4.0 04:42:50 23° NNW 04:46:09 83° ENE 04:51:29 10° SSE
Cosmos 2344 4.2 04:34:54 10° SW 04:46:52 68° WNW 04:55:38 10° NNE
Cosmos 1733 3.5 04:45:27 10° S 04:49:25 68° E 04:53:18 10° NNE
Geosat 4.4 04:48:23 10° SSE 04:53:17 51° WSW 04:56:08 24° NW
CZ-4B R/B 3.4 04:51:52 27° NNW 04:53:37 41° W 04:57:33 10° SSW
Cosmos 1842 Rocket 4.4 04:49:35 10° S 04:53:54 50° E 04:58:09 10° NNE
Okean-O 3.0 04:52:31 10° NNE 04:56:56 67° ESE 05:01:25 10° S
CENTAUR R/B 3.7 04:51:54 10° N 04:59:34 48° ENE 05:06:35 10° SE
Lacrosse 5 3.3 04:57:22 15° W 05:00:48 29° SW 05:05:16 10° SSE
Cosmos 1864 Rocket 4.4 04:56:43 10° SSW 05:02:56 71° W 05:09:02 10° N
Okean O Rocket 2.6 05:02:23 23° NW 05:03:43 27° W 05:07:31 10° SW
SL-16 R/B 2.5 04:58:09 10° S 05:04:23 76° WSW 05:10:00 13° NNW
Cosmos 1725 Rocket 4.0 04:58:52 10° SSW 05:05:04 67° W 05:11:14 10° N
Atlas Centaur 2 2.9 05:02:54 22° NW 05:05:14 31° N 05:10:38 10° NE
SL-24 DEB 4.3 05:00:31 10° S 05:05:22 81° W 05:10:03 10° N
OTV 4 0.2 05:08:32 22° W 05:10:10 87° S 05:12:59 10° E
Meteor 1-4 Rocket 2.4 05:07:35 10° SSW 05:11:11 75° W 05:14:49 10° N
SEDSat Delta rocket 3.8 05:09:10 21° NW 05:11:24 33° N 05:15:45 10° ENE
ERS-2 3.5 05:13:23 20° WNW 05:14:15 21° W 05:17:12 10° SW
OAO 3 Rocket 3.5 05:10:50 16° W 05:14:23 45° NNW 05:18:54 10° ENE
UNK 4.2 05:12:37 10° S 05:17:04 44° WSW 05:20:36 15° NW
COSMOS 2428 4.1 05:13:00 10° N 05:18:11 37° ENE 05:23:25 10° SE
Cosmos 1378 3.2 05:15:03 10° N 05:18:51 85° E 05:22:44 10° S
FALCON 9 R/B 4.5 05:12:58 14° WNW 05:19:32 33° NNW 05:41:28 10° NE
Abrixas rocket 2.2 05:17:41 10° WSW 05:21:03 62° NW 05:24:22 10° NE
Meteor 2-5 Rocket 3.7 05:16:34 10° NNW 05:22:04 66° W 05:27:41 10° S
Cosmos 1953 4.0 05:19:53 10° SW 05:22:37 17° W 05:23:59 15° WNW
GPS 2-04 Rocket1 4.1 05:23:39 15° NNW 05:23:52 15° NNW 05:25:58 10° N
Cosmos 1470 3.4 05:21:09 10° SSW 05:24:50 35° W 05:28:27 10° NNW
Meteor 1-31 Rocket 2.7 05:21:41 10° N 05:25:37 73° WNW 05:29:37 10° SSW
Landsat 4 3.9 05:22:10 10° S 05:25:54 54° WSW 05:29:21 11° NNW
MOZ.5/SAFIR/RUBIN 5/SL-8 3.9 05:21:48 10° SSE 05:26:32 80° ENE 05:31:13 10° N
Exosat Rocket 4.2 05:18:46 10° NNW 05:26:56 82° WSW 05:32:49 10° SSE
ADEOS II 2.9 05:22:51 10° NNW 05:27:31 31° W 05:32:15 10° SW
Cosmos 2263 Rocket 2.2 05:27:49 10° SSW 05:33:22 60° WNW 05:38:55 10° N
Cosmos-2242 4.3 05:30:04 10° SW 05:33:31 23° W 05:36:57 10° NW
SJ-6F 4.5 05:29:41 10° NNE 05:33:53 90° NW 05:38:08 10° SSW
Okean 3 Rocket 3.8 05:29:32 10° N 05:34:01 77° E 05:38:32 10° S
Cosmos 2322 3.8 05:35:06 10° NNW 05:40:48 70° WSW 05:46:32 10° SSE
Cosmos 468 Rocket 4.1 05:36:58 10° NNW 05:42:14 87° WSW 05:47:38 10° SSE
SL-16 R/B 3.6 05:38:51 10° WNW 05:43:24 24° WSW 05:47:59 10° S
Radarsat Rocket 4.3 05:38:27 10° N 05:45:38 73° WNW 05:52:02 10° SSW
Cosmos 2221 2.8 05:42:27 10° S 05:46:56 76° E 05:51:21 10° NNE
Cosmos 2233 Rocket 4.3 05:42:43 10° SSW 05:48:38 48° W 05:54:33 10° NNW
Cosmos 1937 Rocket 4.3 05:43:39 10° S 05:48:56 59° ESE 05:54:05 10° NNE
CZ-4B R/B 4.4 05:46:29 10° NNW 05:49:59 36° W 05:53:41 10° SSW
EO 1 Del DPAF 3.8 05:46:56 10° SSE 05:50:52 65° ENE 05:54:44 10° N
Ariane Rocket 3.5 05:47:46 10° NNE 05:52:50 67° ESE 05:57:57 10° S
USA 161 3.5 05:51:41 10° SW 05:53:26 15° WSW 05:55:12 10° WNW
Cosmos 2360 Rocket 2.6 05:48:37 10° NW 05:54:04 48° WSW 05:59:37 10° S
Meteor 2-1 Rocket 4.2 05:50:22 10° SSW 05:55:57 75° W 06:01:28 10° N
Meteor 1-24 Rocket 3.8 05:51:00 10° NNW 05:56:16 55° WSW 06:01:32 10° S
